Flag Weather past 2 weeks in Vientiane, Laos

Now
77 °F

Fog.


Feels Like: 79 °F
Forecast: 65 / 89 °F
Wind: 2 mph from East

Location: Vientiane Airport

Current Time: Nov 22, 2014 at 9:15:00 PM

Latest Report: Nov 22, 2014 at 8:30 PM


Visibility: 2 mi

Pressure: 29.86 "Hg

Humidity: 74%

Dew point: 68 °F

Location of VientianeLocation

Historic Weather in Vientiane — Graph

°F

Vientiane temperature yesterday

Maximum temperature yesterday: 86 °F (at 3:00 PM)
Minimum temperature yesterday: 68 °F (at 7:00 AM)
Average temperature yesterday: 76 °F

Past Weeks' High & Low Weather Summary

 TemperatureHumidityPressure
High93 °F (Nov 8, 2:30 PM)100% (Nov 8, 6:00 AM)30.09 "Hg (Nov 8, 6:00 AM)
Low66 °F (Nov 20, 6:00 AM)46% (Nov 18, 1:00 PM)29.77 "Hg (Nov 8, 3:30 PM)
Average81 °F70%29.93 "Hg
* Reported Nov 7 8:00 PM — Nov 22 8:00 PM, Vientiane, Weather by CustomWeather, © 2014

Note: Actual official high and low records may vary slightly from our data, if they occured in-between our weather recording intervals... More about our weather records

Advertising

Vientiane weather history for previous 24 hours

 ConditionsComfort  
Time TempWeatherWind HumidityBarometerVisibility
8:00 PM
Nov 22
77 °FFog.2 mph74%29.86 "Hg2 mi
7:30 PM77 °FFog.2 mph74%29.86 "Hg2 mi
7:00 PM79 °FFog.2 mph70%29.83 "Hg2 mi
6:30 PM81 °FFog.2 mph66%29.83 "Hg2 mi
6:00 PM82 °FFog.2 mph62%29.80 "Hg3 mi
4:30 PM86 °FPassing clouds.2 mph55%29.80 "HgN/A
4:00 PM86 °FPassing clouds.2 mph55%29.80 "HgN/A
3:30 PM86 °FPassing clouds.2 mph55%29.83 "HgN/A
3:00 PM86 °FPassing clouds.2 mph55%29.83 "HgN/A
2:30 PM88 °FPassing clouds.2 mph52%29.80 "HgN/A
2:00 PM86 °FPassing clouds.2 mph55%29.83 "HgN/A
1:30 PM86 °FPassing clouds.2 mph55%29.86 "HgN/A
1:00 PM84 °FPassing clouds.2 mph58%29.89 "HgN/A
12:00 PM82 °FPassing clouds.2 mph66%29.92 "Hg4 mi
11:30 AM82 °FPassing clouds.2 mph66%29.95 "Hg4 mi
11:00 AM81 °FWarm.2 mph70%29.95 "Hg4 mi
10:30 AM81 °FClear.2 mph66%29.98 "Hg4 mi
10:00 AM79 °FClear.2 mph70%29.98 "Hg4 mi
9:30 AM77 °FFog.2 mph74%29.98 "Hg3 mi
9:00 AM75 °FFog.2 mph78%29.98 "Hg3 mi
8:30 AM70 °FFog.2 mph88%29.98 "Hg2 mi
8:00 AM70 °FFog.2 mph88%29.98 "Hg2 mi
7:30 AM68 °FFog.2 mph94%29.92 "Hg2 mi
10:30 PM
Nov 21
73 °FFog.2 mph83%29.92 "Hg2 mi
10:00 PM73 °FFog.2 mph83%29.92 "Hg2 mi
9:30 PM75 °FFog.2 mph78%29.92 "Hg2 mi
9:00 PM75 °FFog.2 mph78%29.92 "Hg2 mi
Weather by CustomWeather, © 2014

See weather overviewHow to use our weather pages